ISIS 1

导读

ISIS 1(国际电离层研究卫星)是加拿大研制的电离层观测卫星,于1969年1月30日在美国范登堡空军基地发射升空,发射质量241千克。它延续了阿卢埃特系列卫星对电离层和北极光的研究任务,加拿大将其用到1984年,之后日本继续使用到1990年,为人类电离层研究积累了长期宝贵数据。

Basic Information
目录编号:
3669
目录名称:
ISIS 1
国际标识:
1969-009A
轨道中心:
EARTH
卫星名称:
ISIS 1
卫星全名:
--
卫星状态:
在轨 (已飞行20984 天)
发射日期:
1969-01-30 UTC
国别 :
加拿大 (CA)
星等 :
--
Orbit Information
数据来源 国际轨道数据 AOE轨道数据
星历时间 2026-07-14T04:02:15+0800
10小时前
查看轨道信息
2026-07-09T06:00:00+0800
5天前
查看轨道信息
半长轴 8386.314km 8386.304km
偏心率 0.1707124 0.1706984
轨道倾角 88.445° 88.444°
近地点辐角 194.401° 204.326°
升交点赤经 141.474° 142.013°
平近点角 160.188° 305.111°
近地点 576.529km 576.638km
远地点 3439.825km 3439.696km
周期 127.384分钟 127.384分钟
每日圈数 11.304364 11.304383
Detailed Information
使用方式:
暂无
2D Orbit Map
3D Orbit Map
Orbit Altitude Analysis Chart
Orbit Inclination Analysis Chart
Orbit Comprehensive Analysis Chart
View Comprehensive Chart